sat.trackr.live / text

‹ back to catalog

STARLINK-1308

NORAD 45419 · 2020-019BM

PAYLOAD ACTIVE UNKNOWN

§ Identity

Operator
Country
US
Launch date
2020-03-18
Launch site
AFETR
Launch vehicle
Mass (kg)
RCS (m²)

Purposes: comms

External: N2YO · Heavens-Above · Gunter

§ Orbital elements

Epoch: 2026-05-24T23:18:56.238336Z

Period
92.06 min
Inclination
53.0463°
Eccentricity
0.0008331
Mean motion
15.64176813 rev/d
Perigee alt
370.0 km
Apogee alt
381.2 km
Semi-major
6,753.7 km
B*
9.2936e-4
RAAN
141.8497°
Arg perigee
2.8886°
Mean anomaly
357.2175°
Rev number
34,156

§ Raw data

STARLINK-13081 45419U 20019BM  26144.97148424  .00090588  00000+0  92936-3 0  99922 45419  53.0463 141.8497 0008331   2.8886 357.2175 15.64176813341568

JSON: /api/v1/satellites/45419 · /tle

For live sub-satellite position, see the globe view (requires WebGL).

§ Visibility from observer

Set your observer location to see the next 7 days of passes ≥ 10°. The values pass through the URL so the page stays shareable.

No JS? Fill the form by hand. The geolocation button needs JavaScript.